Location: Sungai Apap
(2.6167°N, 113.3833°E)
Time: 15:15:39
(UTC+00:00)

Cosmos 1937 Rocket - Pass Details

Date: 25 May 2024
Orbit: 744 x 778 km, 74.0° (Epoch: 12 June)

Event Time Altitude Azimuth Distance (km) Brightness Sun altitude
Exits shadow 20:57:06 22° 199° (SSW) 1,625 4.8 -19.1°
Maximum altitude 21:00:31 77° 282° (WNW) 795 3.4 -18.3°
Drops below altitude 10° 21:05:47 10° 8° (N) 2,316 6.4 -17.1°
Sets 21:08:10 0° 10° (N) 3,243 7.2 -16.5°
